This is the latest recevied weather packets stored in our database for station/object N7CW. If no packets are shown the sender has not sent any weather packets the latest 10 day(s).
| Time | Temp. | Humidity | Pressure | Rain* | Wind** | Luminosity | Snow |
|---|---|---|---|---|---|---|---|
| 1777901856 | 11.11° C | 56% | 1014.8 hPa | 0 mm | - | 44 W/m² | - |
| 1777901553 | 11.11° C | 56% | 1014.8 hPa | 0 mm | - | 39 W/m² | - |
| 1777901250 | 11.11° C | 56% | 1014.5 hPa | 0 mm | - | 28 W/m² | - |
| 1777900948 | 11.11° C | 56% | 1014.2 hPa | 0 mm | - | 29 W/m² | - |
| 1777900645 | 10.56° C | 57% | 1014.4 hPa | 0 mm | - | 20 W/m² | - |
| 1777900342 | 10.56° C | 57% | 1014.5 hPa | 0 mm | - | 17 W/m² | - |
| 1777900039 | 10.56° C | 57% | 1014.2 hPa | 0 mm | - | 11 W/m² | - |
| 1777899735 | 10.56° C | 57% | 1014.2 hPa | 0 mm | - | 10 W/m² | - |
| 1777899432 | 10.56° C | 57% | 1014.2 hPa | 0 mm | - | 5 W/m² | - |
| 1777899130 | 10.56° C | 57% | 1014.1 hPa | 0 mm | - | 5 W/m² | - |
| 1777898827 | 10.56° C | 57% | 1014.1 hPa | 0 mm | - | 3 W/m² | - |
| 1777898525 | 10.56° C | 58% | 1014.1 hPa | 0 mm | - | 2 W/m² | - |
| 1777898222 | 10.56° C | 59% | 1014.4 hPa | 0 mm | - | 1 W/m² | - |
| 1777897919 | 10° C | 61% | 1014.2 hPa | 0 mm | - | 1 W/m² | - |
| 1777897615 | 10.56° C | 60% | 1014.2 hPa | 0 mm | - | 0 W/m² | - |
| 1777897310 | 10° C | 60% | 1014 hPa | 0 mm | - | 0 W/m² | - |
| 1777897007 | 10.56° C | 60% | 1014 hPa | 0 mm | - | 0 W/m² | - |
| 1777896704 | 10.56° C | 59% | 1014 hPa | 0 mm | - | 0 W/m² | - |
| 1777896401 | 10.56° C | 59% | 1014 hPa | 0 mm | - | 0 W/m² | - |
| 1777896099 | 10.56° C | 59% | 1014 hPa | 0 mm | - | 0 W/m² | - |
| 1777895797 | 10° C | 59% | 1014.1 hPa | 0 mm | - | 0 W/m² | - |
| 1777895493 | 10.56° C | 59% | 1014 hPa | 0 mm | - | 0 W/m² | - |
| 1777895192 | 10.56° C | 58% | 1014 hPa | 0 mm | - | 0 W/m² | - |
| 1777894888 | 10.56° C | 58% | 1014 hPa | 0 mm | - | 0 W/m² | - |
| 1777894586 | 10.56° C | 59% | 1014 hPa | 0 mm | - | 0 W/m² | - |
* Rain latest hour (hover to see other rain measurements)
** Current wind speed in m/s (hover to see current wind gust speed)